Location: Newark
(52.2090°N, 4.1550°W)
Time: 18:32:39
(UTC+00:00)

Tiros 1 despin weight - All Passes

Search period start: 17 October 2019 00:00
Search period end: 27 October 2019 00:00
Orbit: 594 x 643 km, 48.2° (Epoch: 16 October)

Date Brightness Start Highest point End Pass type
(mag) Time Alt. Az. Time Alt. Az. Time Alt. Az.
17 Oct - 02:51:53 10° SW 02:55:56 29° SSE 03:00:00 10° E visible
17 Oct - 04:32:26 10° WSW 04:37:00 51° S 04:41:33 10° E visible
17 Oct - 06:13:45 10° W 06:18:14 45° SSW 06:22:40 10° ESE daylight
17 Oct - 07:55:38 10° W 07:59:08 21° SSW 08:02:34 10° SSE daylight
18 Oct - 01:28:41 10° S 01:31:32 16° SE 01:34:22 10° ESE night (unlit)
18 Oct - 03:07:55 10° SW 03:12:17 39° SSE 03:16:39 10° E visible
18 Oct - 04:48:54 10° WSW 04:53:29 53° S 04:58:02 10° ESE visible
18 Oct - 06:30:21 10° W 06:34:38 35° SSW 06:38:52 10° SE daylight
18 Oct - 08:13:03 10° WSW 08:15:17 13° SW 08:17:29 10° SSW daylight
19 Oct - 01:43:59 10° SSW 01:47:44 24° SSE 01:51:30 10° E visible
19 Oct - 03:24:11 10° WSW 03:28:42 48° S 03:33:12 10° E visible
19 Oct - 05:05:24 10° W 05:09:56 49° S 05:14:27 10° ESE visible
19 Oct - 06:47:04 10° W 06:50:57 26° SSW 06:54:48 10° SSE daylight
20 Oct - 00:21:40 10° SSE 00:23:26 12° SE 00:25:12 10° ESE night (unlit)
20 Oct - 01:59:49 10° SW 02:04:01 33° SSE 02:08:15 10° E visible
20 Oct - 03:40:35 10° WSW 03:45:10 53° S 03:49:44 10° E visible
20 Oct - 05:21:57 10° W 05:26:22 41° SSW 05:30:45 10° SE visible
20 Oct - 07:04:04 10° WSW 07:07:09 18° SW 07:10:14 10° S daylight
21 Oct - 00:36:16 10° S 00:39:33 19° SE 00:42:52 10° E night (unlit)
21 Oct - 02:15:58 10° SW 02:20:24 43° SSE 02:24:51 10° E visible
21 Oct - 03:57:03 10° W 04:01:38 52° S 04:06:11 10° ESE visible
21 Oct - 05:38:35 10° W 05:42:44 31° SSW 05:46:51 10° SE visible
21 Oct - 07:22:14 10° SW 07:23:16 11° SW 07:24:18 10° SSW daylight
22 Oct - 00:51:51 10° SSW 00:55:48 28° SSE 00:59:47 10° E night (unlit)
22 Oct - 02:32:18 10° WSW 02:36:50 50° S 02:41:24 10° E visible
22 Oct - 04:13:35 10° W 04:18:05 46° SSW 04:22:34 10° ESE visible
22 Oct - 05:55:23 10° W 05:59:00 22° SSW 06:02:37 10° SSE visible
22 Oct - 23:28:51 10° S 23:31:26 15° SE 23:34:01 10° ESE night (unlit)
23 Oct - 01:07:50 10° SW 01:12:08 37° SSE 01:16:28 10° E night (unlit)
23 Oct - 02:48:44 10° WSW 02:53:18 53° S 02:57:54 10° ESE visible
23 Oct - 04:30:09 10° W 04:34:29 37° SSW 04:38:48 10° SE visible
23 Oct - 06:12:38 10° WSW 06:15:11 15° SW 06:17:43 10° S visible
23 Oct - 23:43:59 10° SSW 23:47:36 23° SSE 23:51:15 10° E night (unlit)
24 Oct - 01:24:04 10° WSW 01:28:32 46° SSE 01:33:03 10° E night (unlit)
24 Oct - 03:05:14 10° W 03:09:46 50° S 03:14:19 10° ESE visible
24 Oct - 04:46:51 10° W 04:50:49 27° SSW 04:54:46 10° SSE visible
24 Oct - 22:22:11 10° SSE 22:23:20 11° SE 22:24:30 10° ESE night (unlit)
24 Oct - 23:59:46 10° SW 00:03:53 32° SSE 00:08:02 10° E night (unlit)
25 Oct - 01:40:26 10° WSW 01:44:59 52° S 01:49:34 10° E night (unlit)
25 Oct - 03:21:46 10° W 03:26:12 42° SSW 03:30:39 10° SE visible
25 Oct - 05:03:46 10° W 05:07:03 19° SW 05:10:19 10° S visible
25 Oct - 22:36:21 10° S 22:39:27 18° SE 22:42:33 10° ESE night (unlit)
26 Oct - 00:15:52 10° SW 00:20:15 41° SSE 00:24:40 10° E night (unlit)
26 Oct - 01:56:54 10° W 02:01:27 52° S 02:06:01 10° ESE night (unlit)
26 Oct - 03:38:23 10° W 03:42:34 33° SSW 03:46:46 10° SE visible
26 Oct - 05:21:31 10° WSW 05:23:10 12° SW 05:24:50 10° SSW visible
26 Oct - 22:51:50 10° SSW 22:55:39 26° SSE 22:59:33 10° E night (unlit)
